OBJECT-B - Orbit

View from above orbital plane
View from above orbital plane
View from above satellite
View from above satellite

Ground track
Ground track

The orbit data is extracted from the following two-line orbital elements,

1 33374U 08044B   13140.49407837  .00001658  00000-0  43929-3 0  3452
2 33374 049.4527 243.2211 5473847 275.7084 131.9330 04.82719103 81755
Epoch (UTC): 20 May 2013 11:51:28
Eccentricity: 0.5473847
inclination: 49.4527°
perigee height: 315 km
apogee height: 16506 km
right ascension of ascending node: 243.2211°
argument of perigee: 275.7084°
revolutions per day: 4.82719103
mean anomaly at epoch: 131.9330°
orbit number at epoch: 8175

The dashed part of the orbit path shows where the satellite is in the earth's shadow,  

Developed and maintained by Chris Peat, Heavens-Above GmbH. Please read the updated FAQ before sending e-mail. Imprint. DLR